| time (UTC) | temp F | wind direction | speed MPH | gust MPH | rain 1hr in | rain 24hr in | rain mn in | humidity % | barometer mb |
| 20260506133731 | 55 | 347 | 6.0 | 13.0 | 0.00 | 0.00 | 0.00 | 81 | 1011.8 |
| 20260506132732 | 55 | 347 | 6.0 | 13.0 | 0.00 | 0.00 | 0.00 | 81 | 1011.8 |
| 20260506130732 | 55 | 347 | 6.0 | 13.0 | 0.00 | 0.00 | 0.00 | 81 | 1011.8 |
| 20260506123731 | 55 | 8 | 6.0 | 14.0 | 0.00 | 0.00 | 0.00 | 81 | 1011.3 |
| 20260506120731 | 55 | 8 | 6.0 | 14.0 | 0.00 | 0.00 | 0.00 | 81 | 1011.3 |
| 20260506115732 | 57 | 360 | 4.0 | 14.0 | 0.00 | 0.00 | 0.00 | 82 | 1010.0 |
| 20260506114731 | 57 | 360 | 4.0 | 14.0 | 0.00 | 0.00 | 0.00 | 82 | 1010.0 |
| 20260506113731 | 57 | 360 | 4.0 | 14.0 | 0.00 | 0.00 | 0.00 | 82 | 1010.0 |
| 20260506111731 | 57 | 360 | 4.0 | 14.0 | 0.00 | 0.00 | 0.00 | 82 | 1010.0 |
| 20260506110731 | 57 | 360 | 4.0 | 14.0 | 0.00 | 0.00 | 0.00 | 82 | 1010.0 |
| 20260506105733 | 57 | 6 | 2.0 | 11.0 | 0.00 | 0.00 | 0.00 | 84 | 1009.5 |
| 20260506103731 | 57 | 6 | 2.0 | 11.0 | 0.00 | 0.00 | 0.00 | 84 | 1009.5 |
| 20260506100731 | 57 | 6 | 2.0 | 11.0 | 0.00 | 0.00 | 0.00 | 84 | 1009.5 |
| 20260506093731 | 61 | 305 | 4.0 | 8.0 | 0.00 | 0.00 | 0.00 | 79 | 1009.0 |
| 20260506092734 | 61 | 305 | 4.0 | 8.0 | 0.00 | 0.00 | 0.00 | 79 | 1009.0 |
| 20260506090731 | 61 | 305 | 4.0 | 8.0 | 0.00 | 0.00 | 0.00 | 79 | 1009.0 |
| 20260506083731 | 62 | 7 | 4.0 | 12.0 | 0.00 | 0.00 | 0.00 | 79 | 1008.3 |
| 20260506080732 | 62 | 7 | 4.0 | 12.0 | 0.00 | 0.00 | 0.00 | 79 | 1008.3 |
| 20260506050732 | 69 | 355 | 2.0 | 11.0 | 0.00 | 0.00 | 0.00 | 76 | 1008.1 |
| 20260506043732 | 71 | 326 | 4.0 | 12.0 | 0.00 | 0.00 | 0.00 | 73 | 1007.9 |
| 20260506040732 | 71 | 326 | 4.0 | 12.0 | 0.00 | 0.00 | 0.00 | 73 | 1007.9 |
| 20260506033732 | 75 | 308 | 4.0 | 12.0 | 0.00 | 0.00 | 0.00 | 69 | 1007.1 |
| 20260506032731 | 75 | 308 | 4.0 | 12.0 | 0.00 | 0.00 | 0.00 | 69 | 1007.1 |
| 20260506031734 | 75 | 308 | 4.0 | 12.0 | 0.00 | 0.00 | 0.00 | 69 | 1007.1 |
| 20260506030732 | 75 | 308 | 4.0 | 12.0 | 0.00 | 0.00 | 0.00 | 69 | 1007.1 |
| 20260506024733 | 78 | 198 | 2.0 | 4.0 | 0.00 | 0.00 | 0.00 | 80 | 1005.5 |
| 20260506023731 | 78 | 198 | 2.0 | 4.0 | 0.00 | 0.00 | 0.00 | 80 | 1005.5 |
| 20260506020732 | 78 | 198 | 2.0 | 4.0 | 0.00 | 0.00 | 0.00 | 80 | 1005.5 |
| 20260506014731 | 79 | 193 | 6.0 | 14.0 | 0.00 | 0.00 | 0.00 | 77 | 1004.4 |
| 20260506010732 | 79 | 193 | 6.0 | 14.0 | 0.00 | 0.00 | 0.00 | 77 | 1004.4 |
| 20260506004732 | 81 | 180 | 8.0 | 16.0 | 0.00 | 0.00 | 0.00 | 75 | 1004.2 |
| 20260506001732 | 81 | 180 | 8.0 | 16.0 | 0.00 | 0.00 | 0.00 | 75 | 1004.2 |
| 20260505234731 | 84 | 181 | 8.0 | 17.0 | 0.00 | 0.00 | 0.00 | 71 | 1003.9 |
| 20260505233731 | 84 | 181 | 8.0 | 17.0 | 0.00 | 0.00 | 0.00 | 71 | 1003.9 |
| 20260505230731 | 84 | 181 | 8.0 | 17.0 | 0.00 | 0.00 | 0.00 | 71 | 1003.9 |
| 20260505223731 | 87 | 149 | 6.0 | 15.0 | 0.00 | 0.00 | 0.00 | 66 | 1003.7 |
| 20260505221733 | 87 | 149 | 6.0 | 15.0 | 0.00 | 0.00 | 0.00 | 66 | 1003.7 |
| 20260505220731 | 87 | 149 | 6.0 | 15.0 | 0.00 | 0.00 | 0.00 | 66 | 1003.7 |
| 20260505213731 | 88 | 205 | 6.0 | 13.0 | 0.00 | 0.00 | 0.00 | 63 | 1004.1 |
| 20260505210731 | 88 | 205 | 6.0 | 13.0 | 0.00 | 0.00 | 0.00 | 63 | 1004.1 |
| 20260505205731 | 86 | 201 | 8.0 | 19.0 | 0.00 | 0.00 | 0.00 | 66 | 1004.8 |
| 20260505203731 | 86 | 201 | 8.0 | 19.0 | 0.00 | 0.00 | 0.00 | 66 | 1004.8 |
| 20260505201731 | 86 | 201 | 8.0 | 19.0 | 0.00 | 0.00 | 0.00 | 66 | 1004.8 |
| 20260505200731 | 86 | 201 | 8.0 | 19.0 | 0.00 | 0.00 | 0.00 | 66 | 1004.8 |
| 20260505195731 | 82 | 185 | 10.0 | 17.0 | 0.00 | 0.00 | 0.00 | 69 | 1005.2 |
| 20260505194732 | 82 | 185 | 10.0 | 17.0 | 0.00 | 0.00 | 0.00 | 69 | 1005.2 |
| 20260505190731 | 82 | 185 | 10.0 | 17.0 | 0.00 | 0.00 | 0.00 | 69 | 1005.2 |
| 20260505185731 | 79 | 191 | 11.0 | 19.0 | 0.00 | 0.00 | 0.00 | 75 | 1005.4 |
| 20260505184732 | 79 | 191 | 11.0 | 19.0 | 0.00 | 0.00 | 0.00 | 75 | 1005.4 |
| 20260505181732 | 79 | 191 | 11.0 | 19.0 | 0.00 | 0.00 | 0.00 | 75 | 1005.4 |
| 20260505170732 | 79 | 191 | 11.0 | 19.0 | 0.00 | 0.00 | 0.00 | 75 | 1005.4 |
| 20260505161732 | 75 | 184 | 12.0 | 23.0 | 0.00 | 0.00 | 0.00 | 78 | 1005.4 |
| 20260505160732 | 75 | 184 | 12.0 | 23.0 | 0.00 | 0.00 | 0.00 | 78 | 1005.4 |
| 20260505151732 | 73 | 196 | 11.0 | 19.0 | 0.00 | 0.00 | 0.00 | 81 | 1005.3 |
| 20260505150731 | 73 | 196 | 11.0 | 19.0 | 0.00 | 0.00 | 0.00 | 81 | 1005.3 |